Weather History for Jacksonville, IL

Change the Weather History Date:

Thursday, October 11, 2012

  Actual Average (KSPI) Record (KSPI)
Temperature  
Mean Temperature 56 °F 57 °F  
Max Temperature 69 °F 68 °F 90 °F (1962)
Min Temperature 42 °F 45 °F 28 °F (1987)
Degree Days  
Heating Degree Days 10 9  
Month to date heating degree days 86  
Since 1 July heating degree days 167  
Cooling Degree Days 0 1  
Month to date cooling degree days 13  
Year to date cooling degree days 1112  
Growing Degree Days 6 (Base 50)    
Moisture  
Dew Point 38 °F    
Average Humidity 56    
Maximum Humidity 76    
Minimum Humidity 35    
Precipitation  
Precipitation 0.01 in 0.10 in 1.38 in (1931)
Month to date precipitation 1.08  
Year to date precipitation 29.63  
Snow  
Snow 0.00 in 0.00 in T in (1909)
Month to date snowfall 0.0  
Since 1 July snowfall 0.0  
Since 1 September snowfall 0.0  
Snow Depth -    
Sea Level Pressure  
Sea Level Pressure 30.18 in    
Wind  
Wind Speed 7 mph (South)    
Max Wind Speed 15 mph    
Max Gust Speed 20 mph    
Visibility 10 miles    
Events      
T = Trace of Precipitation, MM = Missing Value Source: NWS Daily Summary

Daily Weather History Graph

Daily Weather History Graph

Search for Another Location

Airport:

Trip Planner

Search our weather history database for the weather conditions in past years. The results will help you decide how hot, cold, wet, or windy it might be!

Date:

Astronomy

Oct. 11, 2012 Rise Set
Actual Time 7:07 AM CDT 6:26 PM CDT
Civil Twilight 6:40 AM CDT 6:53 PM CDT
Nautical Twilight 6:09 AM CDT 7:25 PM CDT
Astronomical Twilight 5:37 AM CDT 7:56 PM CDT
Moon 2:46 AM CDT (10/11) 4:02 PM CDT (10/11)
Length of Visible Light 12h 13m
Length of Day
11h 19m
Waning Crescent, 18% of the Moon is Illuminated
Oct 11
Waning Crescent
Oct 15
New
Oct 21
First Quarter
Oct 29
Full
Nov 6
Last Quarter

Hourly Weather History & Observations

Time (CDT) Temp. Windchill Dew Point Humidity Pressure Visibility Wind Dir Wind Speed Gust Speed Precip Events Conditions
12:15 AM 44.8 °F 42.4 °F 32.9 °F 63% 30.20 in 10.0 mi South 4.6 mph - N/A   Clear
12:35 AM 44.4 °F 42.0 °F 32.9 °F 64% 30.20 in 10.0 mi South 4.6 mph - N/A   Clear
12:55 AM 44.6 °F 42.2 °F 32.0 °F 61% 30.20 in 10.0 mi South 4.6 mph - N/A   Clear
1:15 AM 44.6 °F 42.2 °F 32.0 °F 61% 30.20 in 10.0 mi South 4.6 mph - N/A   Clear
1:35 AM 44.6 °F 42.2 °F 32.9 °F 64% 30.20 in 10.0 mi South 4.6 mph - N/A   Clear
1:55 AM 43.9 °F 41.3 °F 33.1 °F 66% 30.20 in 10.0 mi South 4.6 mph - N/A   Clear
2:15 AM 43.7 °F 41.1 °F 33.3 °F 67% 30.21 in 10.0 mi South 4.6 mph - N/A   Clear
2:35 AM 44.6 °F 42.2 °F 33.8 °F 66% 30.20 in 10.0 mi South 4.6 mph - N/A   Clear
2:55 AM 43.9 °F 39.9 °F 33.8 °F 68% 30.20 in 10.0 mi South 6.9 mph - N/A   Clear
3:15 AM 44.1 °F 40.8 °F 34.0 °F 68% 30.20 in 10.0 mi South 5.8 mph - N/A   Clear
3:35 AM 44.1 °F 40.8 °F 33.8 °F 67% 30.20 in 10.0 mi South 5.8 mph - N/A   Clear
3:55 AM 43.7 °F 40.3 °F 34.0 °F 69% 30.20 in 10.0 mi South 5.8 mph - N/A   Clear
4:15 AM 43.7 °F 39.7 °F 33.8 °F 68% 30.20 in 10.0 mi SSW 6.9 mph - N/A   Clear
4:35 AM 43.9 °F 40.5 °F 33.8 °F 68% 30.20 in 10.0 mi South 5.8 mph - N/A   Clear
4:55 AM 43.5 °F 39.4 °F 33.4 °F 68% 30.20 in 10.0 mi South 6.9 mph - N/A   Clear
5:15 AM 43.7 °F 39.7 °F 33.3 °F 67% 30.20 in 10.0 mi South 6.9 mph - N/A   Clear
5:35 AM 43.2 °F 39.0 °F 33.1 °F 68% 30.20 in 10.0 mi South 6.9 mph - N/A   Clear
5:55 AM 43.0 °F 38.2 °F 33.1 °F 68% 30.21 in 10.0 mi South 8.1 mph - N/A   Clear
6:15 AM 43.0 °F 38.2 °F 32.9 °F 68% 30.21 in 10.0 mi South 8.1 mph - N/A   Clear
6:35 AM 42.8 °F 38.6 °F 32.9 °F 68% 30.21 in 10.0 mi South 6.9 mph - N/A   Clear
6:55 AM 42.6 °F 39.0 °F 32.9 °F 68% 30.21 in 10.0 mi South 5.8 mph - N/A   Clear
7:15 AM 42.3 °F 37.9 °F 33.1 °F 70% 30.21 in 10.0 mi South 6.9 mph - N/A   Clear
7:35 AM 42.8 °F 39.3 °F 33.3 °F 69% 30.21 in 10.0 mi South 5.8 mph - N/A   Clear
7:55 AM 44.1 °F 40.1 °F 34.0 °F 68% 30.21 in 10.0 mi South 6.9 mph - N/A   Clear
8:15 AM 45.5 °F 41.8 °F 34.5 °F 65% 30.21 in 10.0 mi South 6.9 mph - N/A   Clear
8:35 AM 47.5 °F - 34.9 °F 62% 30.21 in 10.0 mi South 8.1 mph - N/A   Clear
8:55 AM 49.3 °F - 35.1 °F 58% 30.22 in 10.0 mi South 10.4 mph - N/A   Clear
9:15 AM 51.1 °F - 35.2 °F 55% 30.22 in 10.0 mi South 11.5 mph - N/A   Clear
9:35 AM 53.1 °F - 35.4 °F 51% 30.21 in 10.0 mi South 13.8 mph 17.3 mph 0.01 in   Clear
9:55 AM 54.1 °F - 35.1 °F 49% 30.21 in 10.0 mi South 13.8 mph - 0.01 in   Clear
10:15 AM 55.8 °F - 35.6 °F 47% 30.22 in 10.0 mi South 12.7 mph - N/A   Clear
10:35 AM 57.4 °F - 36.3 °F 45% 30.22 in 10.0 mi South 12.7 mph - N/A   Clear
10:55 AM 57.6 °F - 36.3 °F 45% 30.21 in 10.0 mi SSW 12.7 mph - N/A   Clear
11:15 AM 59.9 °F - 37.0 °F 43% 30.21 in 10.0 mi South 12.7 mph - N/A   Clear
11:35 AM 61.0 °F - 37.0 °F 41% 30.20 in 10.0 mi SSW 13.8 mph 19.6 mph N/A   Clear
11:55 AM 62.2 °F - 37.8 °F 40% 30.19 in 10.0 mi South 10.4 mph - N/A   Clear
12:15 PM 63.9 °F - 37.2 °F 37% 30.19 in 10.0 mi SSW 12.7 mph 18.4 mph N/A   Clear
12:35 PM 66.2 °F - 37.4 °F 35% 30.18 in 10.0 mi South 12.7 mph 19.6 mph N/A   Clear
12:55 PM 66.0 °F - 38.3 °F 36% 30.17 in 10.0 mi South 13.8 mph - N/A   Clear
1:15 PM 66.6 °F - 37.9 °F 35% 30.15 in 10.0 mi SSW 13.8 mph - N/A   Clear
1:35 PM 66.6 °F - 39.0 °F 36% 30.15 in 10.0 mi South 12.7 mph 18.4 mph N/A   Clear
1:55 PM 67.5 °F - 39.4 °F 36% 30.14 in 10.0 mi SSW 15.0 mph 19.6 mph N/A   Clear
2:15 PM 68.0 °F - 40.3 °F 36% 30.13 in 10.0 mi South 12.7 mph 18.4 mph N/A   Clear
2:35 PM 68.4 °F - 39.6 °F 35% 30.13 in 10.0 mi SSW 11.5 mph 18.4 mph N/A   Clear
2:55 PM 68.9 °F - 40.5 °F 35% 30.13 in 10.0 mi SSW 10.4 mph 17.3 mph N/A   Clear
3:15 PM 69.1 °F - 40.3 °F 35% 30.12 in 10.0 mi SW 9.2 mph - N/A   Clear
3:35 PM 68.9 °F - 41.0 °F 36% 30.12 in 10.0 mi SSW 11.5 mph - N/A   Clear
3:55 PM 68.9 °F - 41.5 °F 37% 30.11 in 10.0 mi SSW 10.4 mph - N/A   Clear
4:15 PM 68.9 °F - 41.0 °F 36% 30.11 in 10.0 mi SSW 8.1 mph 16.1 mph N/A   Clear
4:35 PM 68.5 °F - 41.9 °F 38% 30.11 in 10.0 mi SSW 9.2 mph - N/A   Clear
4:55 PM 68.0 °F - 42.8 °F 40% 30.11 in 10.0 mi South 9.2 mph - N/A   Clear
5:15 PM 67.3 °F - 42.8 °F 41% 30.12 in 10.0 mi South 9.2 mph - N/A   Clear
5:35 PM 66.9 °F - 43.2 °F 42% 30.12 in 10.0 mi SW 10.4 mph - N/A   Clear
5:55 PM 65.5 °F - 43.7 °F 45% 30.12 in 10.0 mi South 8.1 mph - N/A   Clear
6:15 PM 64.4 °F - 44.6 °F 49% 30.11 in 10.0 mi South 8.1 mph - N/A   Clear
6:35 PM 61.7 °F - 44.1 °F 52% 30.12 in 10.0 mi South 8.1 mph - N/A   Clear
6:55 PM 61.2 °F - 44.1 °F 53% 30.12 in 10.0 mi South 6.9 mph - N/A   Clear
7:15 PM 60.1 °F - 44.2 °F 56% 30.13 in 10.0 mi South 6.9 mph - N/A   Clear
7:35 PM 59.0 °F - 44.6 °F 59% 30.15 in 10.0 mi South 4.6 mph - N/A   Scattered Clouds
7:55 PM 59.0 °F - 44.6 °F 59% 30.16 in 10.0 mi Calm Calm - N/A   Scattered Clouds
8:15 PM 59.0 °F - 44.8 °F 59% 30.16 in 10.0 mi Calm Calm - N/A   Scattered Clouds
8:35 PM 57.7 °F - 45.0 °F 62% 30.17 in 10.0 mi Calm Calm - N/A   Clear
8:55 PM 58.3 °F - 45.0 °F 61% 30.17 in 10.0 mi South 4.6 mph - N/A   Clear
9:15 PM 57.9 °F - 45.5 °F 63% 30.17 in 10.0 mi South 4.6 mph - N/A   Clear
9:35 PM 58.5 °F - 45.3 °F 62% 30.18 in 10.0 mi South 6.9 mph - N/A   Clear
9:55 PM 57.4 °F - 45.5 °F 65% 30.17 in 10.0 mi South 5.8 mph - N/A   Clear
10:15 PM 57.0 °F - 45.3 °F 65% 30.18 in 10.0 mi Calm Calm - N/A   Clear
10:35 PM 55.4 °F - 46.4 °F 72% 30.18 in 10.0 mi Calm Calm - N/A   Clear
10:55 PM 55.4 °F - 45.7 °F 70% 30.19 in 10.0 mi Calm Calm - N/A   Clear
11:15 PM 55.6 °F - 45.5 °F 69% 30.19 in 10.0 mi Calm Calm - N/A   Clear
11:35 PM 53.6 °F - 46.0 °F 76% 30.21 in 10.0 mi West 4.6 mph - N/A   Scattered Clouds
11:55 PM 54.0 °F - 46.6 °F 76% 30.21 in 10.0 mi WNW 4.6 mph - N/A   Overcast